{"data":{"norad_id":63260,"epoch":"2026-05-25T02:55:51.738240Z","epoch_age_seconds":54778,"freshness":"FRESH","line1":"1 63260U 25052BC  26145.12212660  .00001475  00000+0  14151-3 0  9990","line2":"2 63260  97.6876  36.9868 0003079  69.3611 290.7940 14.94597037 65187","mean_motion":14.94597037,"eccentricity":0.0003079,"inclination_deg":97.6876,"raan_deg":36.9868,"arg_perigee_deg":69.3611,"mean_anomaly_deg":290.794,"bstar":0.00014151,"rev_number":6518,"period_min":96.347039660296,"perigee_km":581.48026531088,"apogee_km":585.76731760626,"semimajor_km":6961.7607914586,"source":"CELESTRAK","updated_at":"2026-05-25T13:38:03.609859Z"}}